Terminal Aerodrome Forecast
Issued by NWS

Home | Current Version | Previous Version | Text Only | Print | Product List | Glossary On
Versions: 1 2 3 4 5 6 7 8 9 10 11 12 13 14
000
FTUS46 KPDT 251100 RRA
TAFRDM
TAF
KRDM 251141Z 2512/2612 12006KT P6SM SCT130 SCT200
     FM252100 16006KT P6SM FEW090 SCT200=

USA.gov is the U.S. government's official web portal to all federal, state and local government web resources and services.